Regional Weather Roundup
Issued by NWS

Home | Current Version | Previous Version | Text Only | Print | Product List | Glossary On
Versions: 1 2 3 4 5 6 7 8 9 10 11 12 13 14 15 16 17 18 19 20 21 22 23 24 25 26 27 28 29 30 31 32 33 34 35 36 37 38 39 40 41 42 43 44 45 46 47 48 49 50
000
ASUS43 KTOP 250308
RWRKS

WEATHER ROUNDUP FOR KANSAS
NATIONAL WEATHER SERVICE GOODLAND KS
1000 PM CDT THU MAY 24 2018

NOTE:  "FAIR" INDICATES FEW OR NO CLOUDS BELOW 12,000 FEET WITH NO
SIGNIFICANT WEATHER AND/OR OBSTRUCTIONS TO VISIBILITY.

KSZ001>006-013>018-027>032-041>047-250400-
NORTHWEST KANSAS

CITY           SKY/WX    TMP DP  RH WIND       PRES   REMARKS
GOODLAND       PTCLDY    69  46  43 SW7       29.99S
HAYS           CLOUDY    75  54  46 NW26G36   29.98R THUNDER
HILL CITY      TSTM      60  58  92 E10       30.00R
RUSSELL        CLOUDY    75  67  76 SE10      29.92R
$$

KSZ061>065-074>080-084>089-250400-
SOUTHWEST KANSAS

CITY           SKY/WX    TMP DP  RH WIND       PRES   REMARKS
DODGE CITY     CLEAR     77  59  53 SE9       29.95F
ELKHART        CLEAR     74  58  58 S12       29.97R
GARDEN CITY    CLOUDY    72  48  42 N10       29.97R
GREAT BEND     CLEAR     73  66  78 SE9       29.94F
LIBERAL        CLEAR     76  63  64 SE8       29.97R
PRATT          CLEAR     74  64  73 SE8       29.96S
$$

KSZ066>073-081>083-090>101-250400-
SOUTHEAST KANSAS

CITY           SKY/WX    TMP DP  RH WIND       PRES   REMARKS
CHANUTE        LGT RAIN  68  68 100 SE7       30.03S
COFFEYVILLE    MOCLDY    75  68  78 E7        29.99R
HUTCHINSON     CLEAR     75  66  73 SE9       29.95R
MEDICINE LODGE   N/A     74  66  76 E7        29.94R
NEWTON         CLOUDY    69  66  90 SE7       29.99R
PARSONS        CLOUDY    70  69  97 CALM      30.02S
WICHITA INTL   CLOUDY    74  64  71 SE7       29.97R
WICHITA JABRA  PTCLDY    69  68  96 SE3       29.98R
WICHITA MCCONL CLOUDY    72  67  85 S5        29.98R
WINFIELD       PTCLDY    72  66  81 SE5       29.99R
$$

KSZ007>012-019>026-033>040-048>060-102>105-250400-
NORTHEAST KANSAS

CITY           SKY/WX    TMP DP  RH WIND       PRES   REMARKS
CONCORDIA      CLEAR     71  64  78 S9        29.92F
EMPORIA        CLOUDY    68  66  93 SE9       29.99S
LAWRENCE       LGT RAIN  68  66  93 E6        29.99R
MANHATTAN      CLOUDY    71  65  81 SW3       29.96R
MARYSVILLE     CLOUDY    72  63  73 S9        29.95R
OLATHE IND     CLOUDY    68  65  90 S14       30.00S
OLATHE EXE     CLOUDY    66  65  96 S12       30.00F
SALINA         CLEAR     77  67  71 SE10G20   29.94S
TOPEKA BILLARD CLOUDY    69  67  93 SE10      29.99R
TOPEKA FORBES  CLOUDY    69  67  93 SE7       30.00R
$$




USA.gov is the U.S. government's official web portal to all federal, state and local government web resources and services.